Вернуться в каталог

STARLINK-4031

АктивенСвязьVLEO
NORAD 52679·PAYLOAD·🇺🇸 United States

Запущен May 18, 2022 с Cape Canaveral Space Force Station

Loading…

Ближайшие Пролёты (ближайшие 24 часа)

TLE

СвежийSource: CelesTrak SupGP

Эпоха: Sep 14, 2026, 21:13 UTC

1 52679C 22053Z   26257.88451389  .00321220  00000+0  12406-1 0  2579
2 52679  53.1588  13.1726 0001235  81.0573 187.7543 15.25570442    17

Отслеживайте STARLINK-4031 в реальном времени с AllMySat

Download on the App Store